Hourly Data Report for August 20, 2021

TORONTO CITY
ONTARIO
Current Station Operator: ECCC - MSC

43°40'00.000" N
79°24'00.000" W
112.50 m
6158355
71508
XTO

Download Data

Hourly Data (August 2021)
Hourly Data Report for August 20, 2021
TIME
LST
Temp Definition
°C
Dew Point Definition
°C
Rel Hum Definition
%
Precip. Amount Definition
mm

Wind Dir Definition
10's deg

Wind Spd Definition
km/h
Visibility Definition
km
Stn Press Definition
kPa
Hmdx Definition


Wind Chill Definition


Weather Definition


00:00 21.9 15.8 68 0.0       100.19 26   LegendNANA
01:00 21.3 16.1 72 0.0       100.16 26   LegendNANA
02:00 21.7 16.8 74 0.0       100.10 27   LegendNANA
03:00 20.8 17.0 79 0.0       100.11 26   LegendNANA
04:00 20.4 17.1 81 0.0       100.12 26   LegendNANA
05:00 19.4 16.6 84 0.0       100.13     LegendNANA
06:00 19.6 17.1 85 0.0       100.16     LegendNANA
07:00 21.4 18.2 82 0.0       100.19 28   LegendNANA
08:00 24.0 19.1 74 0.0       100.20 31   LegendNANA
09:00 25.4 18.8 67 0.0       100.19 32   LegendNANA
10:00 26.8 19.0 62 0.0       100.20 34   LegendNANA
11:00 28.9 18.2 52 0.0       100.17 35   LegendNANA
12:00 29.0 19.4 56 0.0       100.13 36   LegendNANA
13:00 28.5 18.9 56 0.0       100.12 35   LegendNANA
14:00 28.8 19.3 57 0.0       100.09 36   LegendNANA
15:00 29.2 19.7 57 0.0       100.03 37   LegendNANA
16:00 28.2 19.6 60 0.0       100.00 35   LegendNANA
17:00 28.2 18.6 56 0.0       99.98 35   LegendNANA
18:00 27.2 18.4 58 0.0       99.94 34   LegendNANA
19:00 26.9 18.2 59 0.0       99.96 33   LegendNANA
20:00 25.6 18.2 64 0.0       99.98 32   LegendNANA
21:00 25.5 18.4 65 0.0       99.99 32   LegendNANA
22:00 24.7 18.3 67 0.0       99.99 31   LegendNANA
23:00 25.2 18.8 68 0.0       100.01 32   LegendNANA

Notes on Data Quality.

Legend

  • E = Estimated
  • M = Missing
  • NA = Not Available*
  • [empty] = Indicates an unobserved value
Date modified: